Weather History for De Queen, AR

Change the Weather History Date:

Friday, March 2, 2012

  Actual Average Record
Temperature  
Mean Temperature 59 °F 50 °F  
Max Temperature 72 °F 63 °F 82 °F (1976)
Min Temperature 46 °F 37 °F 20 °F (1947)
Degree Days  
Heating Degree Days 6 16  
Month to date heating degree days 14 32  
Since 1 July heating degree days 2181 2523  
Cooling Degree Days 0 0  
Month to date cooling degree days 0 0  
Year to date cooling degree days 0 2  
Growing Degree Days 10 (Base 50)    
Moisture  
Dew Point 50 °F    
Average Humidity 57    
Maximum Humidity 84    
Minimum Humidity 30    
Precipitation  
Precipitation 0.00 in 0.09 in 7.63 in (2014)
Month to date precipitation 0.00 0.17  
Year to date precipitation 4.77 7.17  
Snow  
Snow 0.00 in - - ()
Month to date snowfall 0.0  
Since 1 July snowfall 2.3  
Snow Depth 0.00 in    
Sea Level Pressure  
Sea Level Pressure 29.65 in    
Wind  
Wind Speed 11 mph (SW)    
Max Wind Speed 28 mph    
Max Gust Speed 35 mph    
Visibility 10 miles    
Events      
T = Trace of Precipitation, MM = Missing Value Source: NWS Daily Summary

Daily Weather History Graph

Daily Weather History Graph

Search for Another Location

Airport:

Trip Planner

Search our weather history database for the weather conditions in past years. The results will help you decide how hot, cold, wet, or windy it might be!

Date:

Astronomy

Mar. 02, 2012 Rise Set
Actual Time 6:44 AM CST 6:15 PM CST
Civil Twilight 6:19 AM CST 6:40 PM CST
Nautical Twilight 5:50 AM CST 7:09 PM CST
Astronomical Twilight 5:21 AM CST 7:38 PM CST
Moon 12:40 PM CST (3/2) 2:22 AM CST (3/2)
Length of Visible Light 12h 21m
Length of Day
11h 30m
Waxing Gibbous, 66% of the Moon is Illuminated
Mar 2
Waxing Gibbous
Mar 8
Full
Mar 14
Last Quarter
Mar 22
New
Mar 30
First Quarter

Hourly Weather History & Observations

Time (CST) Temp. Dew Point Humidity Pressure Visibility Wind Dir Wind Speed Gust Speed Precip Events Conditions
12:23 AM 69.8 °F 62.6 °F 78% 29.60 in 10.0 mi South 5.8 mph - N/A   Mostly Cloudy
12:53 AM 69.1 °F 63.0 °F 81% 29.58 in 10.0 mi South 4.6 mph - N/A   Mostly Cloudy
1:53 AM 71.1 °F 64.0 °F 78% 29.56 in 10.0 mi South 9.2 mph - N/A   Overcast
2:42 AM 71.6 °F 62.6 °F 73% 29.55 in 10.0 mi SSE 11.5 mph 21.9 mph N/A   Overcast
2:53 AM 71.1 °F 64.0 °F 78% 29.53 in 10.0 mi South 11.5 mph 20.7 mph N/A   Overcast
3:44 AM 69.8 °F 64.4 °F 83% 29.53 in 10.0 mi South 11.5 mph 16.1 mph N/A   Overcast
3:53 AM 70.0 °F 64.0 °F 81% 29.52 in 10.0 mi South 10.4 mph 17.3 mph N/A   Overcast
4:33 AM 69.8 °F 64.4 °F 83% 29.53 in 10.0 mi South 10.4 mph 17.3 mph N/A   Overcast
4:53 AM 70.0 °F 64.0 °F 81% 29.53 in 10.0 mi SSW 8.1 mph - N/A   Overcast
5:03 AM 69.8 °F 64.4 °F 83% 29.54 in 10.0 mi South 8.1 mph - N/A   Overcast
5:53 AM 70.0 °F 64.0 °F 81% 29.52 in 10.0 mi South 9.2 mph - N/A   Mostly Cloudy
6:08 AM 69.8 °F 62.6 °F 78% 29.54 in 10.0 mi South 12.7 mph 18.4 mph N/A   Scattered Clouds
6:53 AM 69.1 °F 62.1 °F 78% 29.54 in 10.0 mi South 10.4 mph 24.2 mph N/A   Partly Cloudy
7:53 AM 70.0 °F 59.0 °F 68% 29.57 in 10.0 mi SSW 18.4 mph 25.3 mph N/A   Clear
8:53 AM 71.1 °F 55.0 °F 57% 29.60 in 10.0 mi SW 18.4 mph 28.8 mph N/A   Clear
9:53 AM 70.0 °F 46.0 °F 42% 29.64 in 10.0 mi SW 20.7 mph 31.1 mph N/A   Clear
10:53 AM 71.1 °F 43.0 °F 36% 29.66 in 10.0 mi SW 13.8 mph 20.7 mph N/A   Clear
11:53 AM 72.0 °F 39.9 °F 31% 29.67 in 10.0 mi WSW 12.7 mph - N/A   Clear
12:53 PM 71.1 °F 39.0 °F 31% 29.67 in 10.0 mi West 13.8 mph - N/A   Clear
1:53 PM 69.1 °F 37.9 °F 32% 29.68 in 10.0 mi West 16.1 mph 20.7 mph N/A   Clear
2:53 PM 68.0 °F 36.0 °F 31% 29.69 in 10.0 mi WSW 13.8 mph 23.0 mph N/A   Clear
3:53 PM 68.0 °F 37.9 °F 33% 29.69 in 10.0 mi West 10.4 mph - N/A   Clear
4:53 PM 66.0 °F 37.0 °F 34% 29.71 in 10.0 mi NNW 12.7 mph 17.3 mph N/A   Clear
5:53 PM 62.1 °F 37.0 °F 39% 29.74 in 10.0 mi NW 12.7 mph 19.6 mph N/A   Clear
6:53 PM 57.9 °F 36.0 °F 44% 29.78 in 10.0 mi WNW 8.1 mph - N/A   Clear
7:53 PM 55.0 °F 35.1 °F 47% 29.83 in 10.0 mi NW 5.8 mph - N/A   Clear
8:53 PM 53.1 °F 34.0 °F 48% 29.86 in 10.0 mi NNW 9.2 mph - N/A   Clear
9:53 PM 52.0 °F 34.0 °F 50% 29.88 in 10.0 mi North 9.2 mph - N/A   Clear
10:53 PM 48.9 °F 30.9 °F 50% 29.89 in 10.0 mi North 5.8 mph - N/A   Clear
11:53 PM 46.9 °F 32.0 °F 56% 29.89 in 10.0 mi North 6.9 mph - N/A   Clear